Location: Bradford+West+Gwillimbury,+ON,+Canadà
(44.1162°N, 79.5735°W)
Time: 16:15:49
(UTC-04:00)

STARLINK-2725 - Pass Details

Date: 22 June 2021
Orbit: 348 x 351 km, 53.0° (Epoch: 05 August)

Event Time Altitude Azimuth Distance (km) Brightness Sun altitude
Exits shadow 04:41:47 - 188° (S) 1,514 5.4 -8.2°
Reaches altitude 10° 04:42:25 10° 181° (S) 1,309 5.1 -8.2°
Maximum altitude 04:44:33 19° 134° (SE) 932 4.8 -7.9°
Drops below altitude 10° 04:46:41 10° 86° (E) 1,316 6.4 -7.6°
Sets 04:49:04 0° 67° (ENE) 2,164 8.2 -7.3°
